EDT,Max TemperatureF,Mean TemperatureF,Min TemperatureF,Max Dew PointF,MeanDew PointF,Min DewpointF,Max Humidity, Mean Humidity, Min Humidity, Max Sea Level PressureIn, Mean Sea Level PressureIn, Min Sea Level PressureIn, Max VisibilityMiles, Mean VisibilityMiles, Min VisibilityMiles, Max Wind SpeedMPH, Mean Wind SpeedMPH, Max Gust SpeedMPH,PrecipitationIn, CloudCover, Events, WindDirDegrees
2013-3-1,42,40,36,30,25,23,73,57,51,29.88,29.81,29.71,10,10,10,13,8,18,0.00,8,,308
2013-3-2,37,34,32,23,20,17,66,55,43,29.88,29.85,29.80,10,10,10,14,9,17,0.00,8,,309
2013-3-3,36,32,28,25,19,15,86,61,48,29.90,29.85,29.80,10,9,1,17,11,25,0.00,8,Snow,305
2013-3-4,37,32,27,18,16,13,64,53,43,30.04,29.98,29.91,10,10,10,20,13,28,0.00,4,,298
2013-3-5,44,35,26,27,22,15,72,59,45,30.09,30.01,29.89,10,10,10,12,8,,0.00,1,,340
2013-3-6,45,39,33,34,31,26,93,76,53,30.04,29.85,29.77,10,7,1,23,11,34,0.17,8,Rain-Snow,48
2013-3-7,46,42,37,27,23,21,65,50,36,30.16,30.11,30.04,10,10,10,17,9,25,0.00,5,,348
2013-3-8,46,40,35,24,21,19,59,48,40,30.32,30.21,30.15,10,10,10,20,11,32,0.00,4,,340
2013-3-9,57,46,33,24,22,15,70,46,22,30.37,30.31,30.26,10,10,10,12,6,,0.00,0,,311
2013-3-10,62,45,28,33,24,14,82,47,19,30.33,30.27,30.21,10,10,10,14,4,20,0.00,1,,132
2013-3-11,60,48,37,48,40,33,93,78,44,30.23,30.11,29.91,10,9,5,16,8,23,0.04,3,Rain,117
2013-3-12,55,48,41,54,46,26,100,82,53,29.96,29.81,29.75,10,8,2,18,11,26,0.66,8,Rain,245
2013-3-13,46,38,30,27,23,15,79,53,40,30.03,29.94,29.89,10,10,10,16,9,25,0.00,3,,276
2013-3-14,42,36,30,17,13,10,57,40,29,30.09,30.04,30.01,10,10,10,25,16,39,0.00,3,,298
2013-3-15,53,40,28,31,22,7,64,47,34,30.08,29.91,29.76,10,10,10,20,9,29,0.00,3,,266
2013-3-16,46,38,32,32,30,23,96,84,53,29.96,29.81,29.74,10,5,1,10,7,,0.23,8,Rain-Snow,66
2013-3-17,39,34,30,31,24,18,96,69,43,30.29,30.12,29.95,10,9,6,9,3,,0.00,4,,344
2013-3-18,34,32,30,31,27,16,100,82,52,30.35,30.12,29.90,10,5,0,17,6,24,0.49,7,Fog-Rain-Snow,92
2013-3-19,54,42,32,36,30,14,100,81,27,29.93,29.82,29.71,10,5,1,25,5,36,0.05,6,Rain,24
2013-3-20,46,38,30,21,17,15,56,43,29,29.95,29.89,29.79,10,10,10,20,10,29,0.00,4,,285
2013-3-21,36,32,28,20,12,6,59,44,34,29.86,29.81,29.75,10,10,10,17,9,26,0.00,6,,310
2013-3-22,42,34,27,24,19,14,76,55,40,29.99,29.89,29.83,10,9,3,16,9,26,0.00,6,Snow,284
2013-3-23,46,36,28,20,19,18,72,49,36,30.01,29.98,29.94,10,10,10,17,9,28,0.00,2,,294
2013-3-24,45,36,26,25,20,18,75,51,34,30.01,29.85,29.66,10,10,10,17,4,,0.00,2,,152
2013-3-25,39,36,32,34,32,24,100,89,53,29.70,29.58,29.54,10,4,0,12,6,17,0.36,8,Fog-Rain-Snow,49
2013-3-26,51,41,32,33,29,21,89,66,32,29.97,29.83,29.70,10,10,10,14,7,23,0.01,6,Rain,286
2013-3-27,50,42,37,29,26,23,65,53,38,30.09,30.02,29.96,10,10,10,17,10,26,0.00,5,,293
2013-3-28,48,42,37,32,26,21,76,54,34,30.22,30.12,30.06,10,10,10,12,8,21,0.00,7,,295
2013-3-29,54,46,35,30,27,24,72,51,32,30.24,30.20,30.13,10,10,10,16,7,16,0.00,6,,303
2013-3-30,57,42,28,28,25,18,89,53,23,30.23,30.17,30.11,10,10,8,6,3,17,0.00,0,,271
2013-3-31,51,42,34,46,40,26,100,85,57,30.12,29.85,29.74,10,6,1,8,3,,0.14,6,Rain,127